www.pogodaiklimat.ru

Погода и климат >> Архив погоды >> Малайзия >> Penang


ПОГОДА в Penang

  • Прогноз погоды в Penang
  • Монитор погоды в Penang
  • Климат города

АРХИВ ПОГОДЫ в Penang

Время (UTC), дата Ветер
(напр.,м/с)
 
Видим.   Явления Облачность Т
(С)
Тd
(С)
f
(%)
Тe
(С)
Тes
(С)
Комфортность P
(гПа)
Po
(гПа)
Тmin
(С)
Tmax
(С)
R
(мм)
R24
(мм)
S
(см)
09 11.08 ЮЗ 4 9000 м мгла 9/3 600 м
[Cu med, cong Ac und Ci sp]
+31.5 +23.8 64 +43 +45 опасность
перегрева
1007.1 1006.7
12 11.08 ЮЗ 3 9000 м мгла 9/3 750 м
[Sc Ac trans Ci sp]
+29.6 +24.0 72 +41 +41 опасность
перегрева
1007.7 1007.3 +33.6
15 11.08 С 1 8000 м мгла 9/3 750 м
[Sc Ac lent Ci sp]
+28.3 +24.8 81 +40 +40 очень
душно
1009.9 1009.5
18 11.08 штиль 0 8000 м мгла 9/3 750 м
[Sc Ac lent Ci fib]
+27.2 +25.1 88 +39 +39 очень
душно
1009.4 1009.0
21 11.08 штиль 0 8000 м мгла 9/3 750 м
[Sc Ac trans Ci sp]
+26.8 +25.0 90 +39 +39 очень
душно
1008.3 1007.9
00 12.08 штиль 0 7000 м мгла 9/3 600 м
[Cu med, cong Ac lent Ci fib]
+26.7 +25.3 92 +39 +39 очень
душно
1008.6 1008.2 +26.1
03 12.08 ЮВ 3 7000 м мгла 8/3 600 м
[Cu hum Ac lent Ci fib]
+31.4 +23.8 64 +43 +49 опасность
перегрева
1010.1 1009.7
06 12.08 Ю 5 9000 м мгла 8/1 600 м
[Cu hum Ac trans Ci sp]
+33.1 +23.0 55 +43 +49 опасность
перегрева
1008.6 1008.2
09 12.08 ЮЗ 3 9000 м мгла 8/1 600 м
[Cu hum Ac trans Ci sp]
+31.8 +24.1 64 +44 +47 опасность
перегрева
1007.2 1006.8
12 12.08 Ю 2 8000 м мгла 9/3 750 м
[Sc Ac lent Ci fib]
+28.9 +23.8 74 +40 +40 очень
душно
1007.1 1006.7 +33.5
15 12.08 штиль 0 8000 м мгла 9/3 750 м
[Sc Ac trans Ci sp]
+27.1 +24.2 84 +38 +38 очень
душно
1009.4 1009.0
18 12.08 З 1 8000 м мгла 9/3 750 м
[Sc Ac lent Ci sp]
+27.0 +24.7 87 +38 +38 очень
душно
1009.1 1008.7
21 12.08 штиль 0 8000 м мгла 9/3 750 м
[Sc Ac trans Ci sp]
+26.0 +24.4 91 +36 +36 очень
душно
1008.0 1007.6
00 13.08 штиль 0 7000 м слабая морось 9/3 600 м
[Cu Sc Ac lent Ci sp]
+25.9 +24.6 93 +37 +37 очень
душно
1009.3 1008.9 +25.2
03 13.08 ЮВ 2 8000 м мгла 9/3 600 м
[Cu hum Ac lent Ci sp]
+31.2 +21.5 56 +39 +45 очень
душно
1010.1 1009.7
06 13.08 Ю 5 9000 м мгла 9/1 600 м
[Cu hum Ac lent Ci fib]
+33.4 +22.6 53 +43 +48 опасность
перегрева
1008.7 1008.3
09 13.08 ЮЗ 4 9000 м мгла 9/1 600 м
[Cu hum Ac lent Ci fib]
+32.7 +22.5 55 +42 +45 опасность
перегрева
1007.3 1006.9
12 13.08 ЮЗ 1 9000 м мгла 9/3 660 м
[Cu Sc Ac trans Ci sp]
+29.8 +20.6 58 +37 +37 очень
душно
1007.9 1007.5 +33.8
15 13.08 штиль 0 9000 м мгла 9/3 750 м
[Sc Ac trans Ci sp]
+27.5 +23.1 77 +37 +37 очень
душно
1009.7 1009.3
18 13.08 штиль 0 9000 м мгла 9/1 750 м
[Sc Ac trans Ci sp]
+26.4 +23.1 82 +35 +35 очень
душно
1009.3 1008.9
21 13.08 штиль 0 8000 м мгла 9/3 750 м
[Sc Ac trans Ci sp]
+25.7 +23.9 90 +35 +35 очень
душно
1007.9 1007.5
00 14.08 Ю 1 8000 м мгла 9/3 600 м
[Cu Sc Ac lent Ci sp]
+26.2 +23.8 87 +36 +36 очень
душно
1008.6 1008.2 +25.5
03 14.08 Ю 2 6000 м мгла 9/3 600 м
[Cu med, cong Ac lent Ci sp]
+31.0 +23.3 64 +42 +48 опасность
перегрева
1009.5 1009.1
06 14.08 Ю 4 5000 м мгла 9/3 600 м
[Cu Sc Ac lent Ci sp]
+33.6 +25.3 62 +48 +54 опасность
перегрева
1008.1 1007.7
09 14.08 ЮЗ 3 5000 м мгла 9/1 600 м
[Cu Sc Ac lent Ci sp]
+32.3 +24.2 62 +44 +48 опасность
перегрева
1006.3 1005.9
12 14.08 ЮЗ 2 8000 м мгла 9/1 750 м
[Sc Ac lent Ci fib]
+29.9 +22.7 65 +39 +39 очень
душно
1007.0 1006.6 +33.7
15 14.08 ЮЗ 1 8000 м мгла 9/3 750 м
[Sc Ac lent Ci sp]
+29.1 +22.2 66 +38 +38 очень
душно
1009.1 1008.7
18 14.08 штиль 0 8000 м мгла 9/3 750 м
[Sc Ac lent Ci ing]
+27.8 +24.1 80 +39 +39 очень
душно
1009.3 1008.9
21 14.08 штиль 0 8000 м мгла 9/3 750 м
[Sc Ac lent Ci sp]
+27.2 +23.8 82 +37 +37 очень
душно
1008.4 1008.0
00 15.08 ЮЗ 1 7000 м мгла 9/3 600 м
[Cu Sc Ac trans Ci sp]
+27.1 +23.1 79 +36 +37 очень
душно
1008.9 1008.5 +26.2
03 15.08 Ю 3 5000 м мгла 9/1 600 м
[Cu Sc Ac lent Ci sp]
+32.1 +23.8 62 +44 +50 опасность
перегрева
1010.5 1010.1
06 15.08 Ю 7 5000 м мгла 9/1 600 м
[Cu hum Ac trans Ci sp]
+33.8 +22.9 53 +44 +47 опасность
перегрева
1008.6 1008.2
09 15.08 ЮЗ 7 3000 м мгла {туман} 9/1 600 м
[Cu hum Ac lent Ci fib]
+32.5 +23.6 60 +44 +45 опасность
перегрева
1007.1 1006.7
12 15.08 ЮЗ 3 5000 м мгла {туман} 9/3 600 м
[Cu Sc Ac trans Ci sp]
+29.8 +25.6 78 +44 +44 опасность
перегрева
1007.7 1007.3 +34.1
15 15.08 З 1 5000 м мгла 9/1 750 м
[Sc Ac lent Ci sp]
+28.6 +24.3 78 +40 +40 очень
душно
1009.6 1009.2
18 15.08 З 1 7000 м мгла 9/1 750 м
[Sc Ac lent Ci fib]
+28.4 +23.9 77 +39 +39 очень
душно
1009.5 1009.1
21 15.08 штиль 0 7000 м мгла 9/1 750 м
[Sc Ac lent Ci sp]
+26.6 +24.5 88 +37 +37 очень
душно
1008.9 1008.5
00 16.08 С 1 5000 м мгла 9/1 600 м
[Cu med, cong Ac lent Ci sp]
+27.4 +24.5 84 +39 +39 очень
душно
1009.0 1008.6 +26.1
03 16.08 Ю 2 7000 м мгла 9/3 600 м
[Cu med, cong Ac trans Ci sp]
+31.9 +24.5 65 +45 +50 опасность
перегрева
1010.0 1009.6
06 16.08 Ю 3 8000 м мгла 9/1 600 м
[Cu hum Ac trans Ci sp]
+31.9 +25.1 67 +45 +55 опасность
перегрева
1008.5 1008.1
09 16.08 СЗ 2 9000 м мгла 9/4 600 м
[Cu Sc Ac lent Ci sp]
+32.3 +23.5 60 +43 +46 опасность
перегрева
1006.6 1006.2
12 16.08 С 2 9000 м мгла 9/1 750 м
[Sc Ac trans Ci sp]
+29.9 +22.5 65 +39 +39 очень
душно
1007.2 1006.8 +33.7
15 16.08 штиль 0 8000 м мгла 9/1 750 м
[Sc Ac lent Ci fib]
+28.0 +24.2 80 +39 +39 очень
душно
1008.7 1008.3
18 16.08 штиль 0 8000 м мгла 9/3 750 м
[Sc Ac lent Ci fib]
+27.0 +24.4 86 +38 +38 очень
душно
1007.8 1007.4
21 16.08 ЮВ 1 8000 м гроза, ливневой дождь 9/5 360 м
[Cb cap Ac trans Cs]
+25.9 +25.1 95 +37 +37 очень
душно
1006.8 1006.4
00 17.08 СВ 2 7000 м слабый дождь {гроза} 9/6 360 м
[Cu Sc Ac trans Cs]
+25.8 +24.8 94 +37 +37 очень
душно
1007.6 1007.2 +25.6 5
03 17.08 СВ 2 8000 м слабый дождь 9/6 360 м
[Cb cap Ac lent Ci sp]
+26.1 +25.1 94 +37 +41 очень
душно
1008.4 1008.0
06 17.08 В 1 9000 м мгла {дождь} 9/3 600 м
[Cu med, cong Ac lent Ci sp]
+30.2 +25.6 76 +44 +55 опасность
перегрева
1006.1 1005.7 0.8
09 17.08 Ю 4 9000 м мгла 9/1 600 м
[Cu hum Ac trans Ci sp]
+32.1 +22.8 58 +42 +44 опасность
перегрева
1004.4 1004.0
12 17.08 СЗ 1 9000 м мгла 9/3 660 м
[Cu Sc Ac lent Ci sp]
+29.4 +23.8 72 +40 +40 очень
душно
1005.4 1005.0 +32.8
15 17.08 ЮЗ 1 9000 м мгла 9/1 750 м
[Sc Ac trans Ci sp]
+26.6 +23.0 81 +36 +36 очень
душно
1007.1 1006.7
18 17.08 З 1 9000 м зарница 9/4 500 м
[Cb cap Ac trans Ci sp]
+26.6 +23.0 81 +36 +36 очень
душно
1007.3 1006.9
21 17.08 штиль 0 8000 м в посл. час гроза {дождь} 9/4 360 м
[Cb cap Ac lent Ci sp]
+25.8 +24.9 95 +37 +37 очень
душно
1006.6 1006.2
00 18.08 штиль 0 8000 м мгла {гроза, дождь} 9/1 600 м
[Cu hum Ac trans Ci sp]
+26.0 +24.8 93 +37 +37 очень
душно
1007.9 1007.5 +25.0 2
03 18.08 ЮЗ 4 8000 м мгла 9/1 600 м
[Cu hum Ac trans Ci sp]
+30.6 +24.2 69 +43 +48 опасность
перегрева
1008.0 1007.6

 

Местоположение метеостанции Penang (Малайзия): широта 5.30 долгота 100.26 высота над уровнем моря 4 м.

В архиве по умолчанию представлена погода в Penang за последнюю неделю. Архивные данные за месяц целиком и за предыдущие месяцы, начиная с января 2011 года, Вы можете получить, выбрав интересующий диапазон дат из раскрывающегося списка и нажав кнопку "Ввод!".


*Определитесь, кто Вы:
робот инопланетянин человек

Внимание! Время в таблицах - всемирное. Для получения местного времени необходимо прибавить поправку, которая в Penang равна 7 ч.

Смотрите также архив погоды в соседних городах и на ближайших метеорологических станциях:

Погода в Butterworth Air Base (Малайзия) (23 км)
Погода в Alor Star (Малайзия) (101 км)
Погода в Ipoh (Малайзия) (124 км)
Погода в Langkawi (Малайзия) (129 км)
Погода в Sitiawan (Малайзия) (130 км)
Погода в Satun (Таиланд) (151 км)
Погода в Kho Hong Agromet (Таиланд) (151 км)
Погода в Cameron Highlands (Малайзия) (154 км)
Погода в Sadao (Таиланд) (168 км)
Погода в Yala Agromet (Таиланд) (176 км)

Пояснения к столбцам:

Ветер - указаны скорость ветра в м/с - средняя за 10 мин, порывы в срок и между сроками (в фигурных скобках) и направление, откуда дует ветер: С - северный, СВ - северо-восточный, В - восточный, ЮВ - юго-восточный, Ю - южный, ЮЗ - юго-западный, З - западный, СЗ - северо-западный.
Видимость - горизонтальная дальность видимости в метрах или километрах. При видимости от 1 до 10 км при отсутствии осадков обычно наблюдается дымка, при ухудшении видимости до 1 км и менее - туман. В сухую погоду видимость может ухудшаться дымом, пылью или мглою.
Явления - указаны атмосферные явления, наблюдавшиеся в срок или в последний час перед сроком; фигурными скобками обозначены явления, наблюдавшиеся между сроками (за 1-3 часа до срока); квадратными скобками обозначены град или гололедные отложения с указанием их диаметра в мм.
Облачность - указаны через наклонную черту общая и нижняя облачность в баллах и высота нижней границы облаков в метрах; квадратными скобками обозначены формы облаков: Ci - перистые, Cs - перисто-слоистые, Cc - перисто-кучевые, Ac - высококучевые, As - высокослоистые, Sc - слоисто-кучевые, Ns - слоисто-дождевые, Cu - кучевые, Cb - кучево-дождевые. Подробнее классификацию облаков см. в Атласе облаков (PDF).
T - Температура воздуха - температура, измеренная на высоте 2 м над землей.
Td - Температура точки росы - температура, при понижении до которой содержащийся в воздухе водяной пар достигнет насыщения.
f - Относительная влажность воздуха - влажноcть воздуха, измеренная на высоте 2 м над землей.
Te - Эффективная температура - температура, которую ощущает одетый по сезону человек в тени. Характеристика душности погоды. При расчете учитывается влияние влажности воздуха и скорости ветра на теплоощущения человека.
Tes - Эффективная температура на солнце - температура, которую ощущает человек, с поправкой на солнечный нагрев. Характеристика знойности погоды. Зависит от высоты солнца над горизонтом, облачности и скорости ветра. Ночью, в пасмурную погоду, а также при ветре 12 м/с и более поправка равна нулю.
P - Атмосферное давление - приведенное к уровню моря атмосферное давление.
Po - Атмосферное давление - измеренное на уровне метеостанции атмосферное давление.
Tmin - Минимальная температура - минимум температуры воздуха на высоте 2 м над землей.
Tmax - Максимальная температура - максимум температуры воздуха на высоте 2 м над землей.
R - Количество осадков - Количество выпавших осадков за период времени, мм. При наведении курсора мыши на число - период времени, за который выпало указанное количество осадков.
R24 - Количество осадков - Количество выпавших осадков за 24 часа, мм.
S - Снежный покров - Высота снежного покрова, см. При наведении курсора мыши на число - состояние снежного покрова и степень покрытия местности в баллах.